• în Republica Moldova
  • Lista ţărilor
  • Pe 7 zile
  • Temperatura apei
  • Hartă satelitară
  • Meteo pe hartă
  • Widget-uri
  • user-avatar
    Intrare

    Meteo pe oră la Fier

    Astăzi, 22 Iunie, Joi

    Timp Temperatura Precipitaţii Vânt Presiune Umiditate
    00:00 +21°C° 0 mm 1 m/s 760 mmHg 77%
    01:00 +21°C° 0 mm 1 m/s 760 mmHg 76%
    02:00 +21°C° 0 mm 1 m/s 760 mmHg 77%
    03:00 +20°C° 0 mm 1 m/s 760 mmHg 78%
    04:00 +20°C° 0 mm 1 m/s 760 mmHg 79%
    05:00 +23°C° 0 mm 1 m/s 761 mmHg 70%
    06:00 +25°C° 0 mm 1 m/s 761 mmHg 60%
    07:00 +28°C° 0 mm 1 m/s 761 mmHg 51%
    08:00 +30°C° 0 mm 1 m/s 761 mmHg 46%
    09:00 +31°C° 0 mm 2 m/s 761 mmHg 42%
    10:00 +34°C° 0 mm 2 m/s 761 mmHg 37%
    11:00 +34°C° 0 mm 3 m/s 761 mmHg 36%
    12:00 +35°C° 0 mm 3 m/s 761 mmHg 35%
    13:00 +35°C° 0 mm 4 m/s 761 mmHg 34%
    14:00 +34°C° 0 mm 4 m/s 761 mmHg 36%
    15:00 +34°C° 0 mm 4 m/s 761 mmHg 38%
    16:00 +33°C° 0 mm 4 m/s 761 mmHg 41%
    17:00 +30°C° 0 mm 3 m/s 761 mmHg 49%
    18:00 +28°C° 0 mm 2 m/s 761 mmHg 58%
    19:00 +25°C° 0 mm 2 m/s 761 mmHg 66%
    20:00 +24°C° 0 mm 1 m/s 761 mmHg 70%
    21:00 +23°C° 0 mm 1 m/s 761 mmHg 73%
    22:00 +22°C° 0 mm 1 m/s 762 mmHg 76%
    23:00 +22°C° 0 mm 1 m/s 762 mmHg 77%

    Mâine, 23 Iunie, Vineri

    Timp Temperatura Precipitaţii Vânt Presiune Umiditate
    00:00 +22°C° 0 mm 1 m/s 762 mmHg 78%
    01:00 +22°C° 0 mm 1 m/s 762 mmHg 79%
    02:00 +21°C° 0 mm 1 m/s 762 mmHg 79%
    03:00 +21°C° 0 mm 1 m/s 761 mmHg 79%
    04:00 +21°C° 0 mm 1 m/s 761 mmHg 79%
    05:00 +23°C° 0 mm 1 m/s 761 mmHg 70%
    06:00 +26°C° 0 mm 1 m/s 762 mmHg 60%
    07:00 +29°C° 0 mm 1 m/s 762 mmHg 50%
    08:00 +30°C° 0 mm 1 m/s 762 mmHg 45%
    09:00 +32°C° 0 mm 1 m/s 762 mmHg 40%
    10:00 +34°C° 0 mm 2 m/s 762 mmHg 35%
    11:00 +35°C° 0 mm 2 m/s 762 mmHg 33%
    12:00 +35°C° 0 mm 3 m/s 761 mmHg 31%
    13:00 +36°C° 0 mm 4 m/s 761 mmHg 30%
    14:00 +35°C° 0 mm 3 m/s 761 mmHg 31%
    15:00 +35°C° 0 mm 3 m/s 760 mmHg 33%
    16:00 +34°C° 0 mm 3 m/s 760 mmHg 34%
    17:00 +30°C° 0 mm 2 m/s 760 mmHg 43%
    18:00 +28°C° 0 mm 2 m/s 760 mmHg 52%
    19:00 +25°C° 0 mm 1 m/s 760 mmHg 61%
    20:00 +24°C° 0 mm 1 m/s 761 mmHg 65%
    21:00 +23°C° 0 mm 1 m/s 761 mmHg 68%
    22:00 +20°C° 0 mm 0 m/s 761 mmHg 72%
    23:00 +20°C° 0 mm 0 m/s 761 mmHg 71%

    Poimâine, 24 Iunie, Sâmbătă

    Timp Temperatura Precipitaţii Vânt Presiune Umiditate
    00:00 +19°C° 0 mm 0 m/s 761 mmHg 71%
    01:00 +19°C° 0 mm 0 m/s 761 mmHg 71%
    02:00 +19°C° 0 mm 0 m/s 761 mmHg 72%
    03:00 +21°C° 0 mm 1 m/s 760 mmHg 73%
    04:00 +20°C° 0 mm 1 m/s 760 mmHg 73%
    05:00 +23°C° 0 mm 1 m/s 760 mmHg 63%
    06:00 +26°C° 0 mm 1 m/s 760 mmHg 53%
    07:00 +29°C° 0 mm 1 m/s 760 mmHg 44%
    08:00 +31°C° 0 mm 1 m/s 760 mmHg 39%
    09:00 +34°C° 0 mm 2 m/s 760 mmHg 35%
    10:00 +35°C° 0 mm 2 m/s 760 mmHg 30%
    11:00 +36°C° 0 mm 2 m/s 760 mmHg 30%
    12:00 +36°C° 0 mm 3 m/s 760 mmHg 29%
    13:00 +37°C° 0 mm 4 m/s 759 mmHg 28%
    14:00 +36°C° 0 mm 4 m/s 759 mmHg 30%
    15:00 +36°C° 0 mm 4 m/s 759 mmHg 32%
    16:00 +35°C° 0 mm 3 m/s 759 mmHg 35%
    17:00 +31°C° 0 mm 3 m/s 759 mmHg 44%
    18:00 +29°C° 0 mm 2 m/s 759 mmHg 54%
    19:00 +26°C° 0 mm 2 m/s 759 mmHg 64%
    20:00 +25°C° 0 mm 1 m/s 759 mmHg 65%
    21:00 +24°C° 0 mm 1 m/s 759 mmHg 67%
    22:00 +21°C° 0 mm 0 m/s 760 mmHg 69%
    23:00 +21°C° 0 mm 0 m/s 760 mmHg 70%

    25 Iunie, Duminică

    Timp Temperatura Precipitaţii Vânt Presiune Umiditate
    00:00 +21°C° 0 mm 0 m/s 759 mmHg 71%
    01:00 +21°C° 0 mm 0 m/s 759 mmHg 72%
    02:00 +20°C° 0 mm 0 m/s 759 mmHg 74%
    03:00 +20°C° 0 mm 0 m/s 759 mmHg 77%
    04:00 +20°C° 0 mm 0 m/s 759 mmHg 80%
    05:00 +23°C° 0 mm 0 m/s 759 mmHg 69%
    06:00 +25°C° 0 mm 0 m/s 759 mmHg 58%
    07:00 +28°C° 0 mm 0 m/s 759 mmHg 48%
    08:00 +32°C° 0 mm 1 m/s 759 mmHg 43%
    09:00 +33°C° 0 mm 1 m/s 759 mmHg 38%
    10:00 +35°C° 0 mm 1 m/s 759 mmHg 33%
    11:00 +36°C° 0,1 mm 2 m/s 758 mmHg 32%
    12:00 +37°C° 0,1 mm 2 m/s 758 mmHg 31%
    13:00 +37°C° 0,1 mm 3 m/s 758 mmHg 30%
    14:00 +36°C° 0,1 mm 3 m/s 758 mmHg 31%
    15:00 +36°C° 0,1 mm 3 m/s 758 mmHg 33%
    16:00 +35°C° 0,1 mm 2 m/s 757 mmHg 34%
    17:00 +32°C° 0 mm 2 m/s 757 mmHg 43%
    18:00 +29°C° 0 mm 1 m/s 758 mmHg 52%
    19:00 +26°C° 0 mm 1 m/s 758 mmHg 61%
    20:00 +25°C° 0 mm 1 m/s 758 mmHg 61%
    21:00 +24°C° 0 mm 1 m/s 758 mmHg 61%
    22:00 +24°C° 0 mm 1 m/s 759 mmHg 61%
    23:00 +23°C° 0 mm 1 m/s 758 mmHg 64%

    26 Iunie, Luni

    Timp Temperatura Precipitaţii Vânt Presiune Umiditate
    00:00 +23°C° 0 mm 1 m/s 758 mmHg 66%
    01:00 +20°C° 0 mm 0 m/s 758 mmHg 69%
    02:00 +20°C° 0 mm 0 m/s 758 mmHg 69%
    03:00 +22°C° 0 mm 1 m/s 758 mmHg 69%
    04:00 +21°C° 0 mm 1 m/s 758 mmHg 69%
    05:00 +24°C° 0 mm 1 m/s 758 mmHg 59%
    06:00 +27°C° 0 mm 1 m/s 758 mmHg 49%
    07:00 +30°C° 0 mm 1 m/s 758 mmHg 39%
    08:00 +32°C° 0 mm 1 m/s 758 mmHg 35%
    09:00 +34°C° 0 mm 1 m/s 758 mmHg 32%
    10:00 +35°C° 0 mm 1 m/s 758 mmHg 28%
    11:00 +37°C° 0 mm 2 m/s 758 mmHg 28%
    12:00 +37°C° 0 mm 3 m/s 758 mmHg 27%
    13:00 +38°C° 0 mm 3 m/s 758 mmHg 26%
    14:00 +37°C° 0 mm 3 m/s 758 mmHg 29%
    15:00 +36°C° 0 mm 3 m/s 757 mmHg 31%
    16:00 +35°C° 0 mm 3 m/s 757 mmHg 33%
    17:00 +32°C° 0 mm 2 m/s 757 mmHg 43%
    18:00 +29°C° 0 mm 2 m/s 758 mmHg 53%
    19:00 +27°C° 0 mm 1 m/s 758 mmHg 62%
    20:00 +26°C° 0 mm 1 m/s 758 mmHg 64%
    21:00 +25°C° 0 mm 1 m/s 758 mmHg 65%
    22:00 +24°C° 0 mm 1 m/s 759 mmHg 66%
    23:00 +21°C° 0 mm 0 m/s 759 mmHg 67%

    27 Iunie, Marţi

    Timp Temperatura Precipitaţii Vânt Presiune Umiditate
    00:00 +21°C° 0 mm 0 m/s 758 mmHg 69%
    01:00 +21°C° 0 mm 0 m/s 758 mmHg 70%
    02:00 +21°C° 0 mm 0 m/s 758 mmHg 69%
    03:00 +20°C° 0 mm 0 m/s 758 mmHg 69%
    04:00 +20°C° 0 mm 0 m/s 758 mmHg 68%
    05:00 +23°C° 0 mm 0 m/s 758 mmHg 59%
    06:00 +26°C° 0 mm 0 m/s 759 mmHg 51%
    07:00 +29°C° 0 mm 0 m/s 759 mmHg 42%
    08:00 +32°C° 0 mm 1 m/s 759 mmHg 39%
    09:00 +34°C° 0 mm 1 m/s 759 mmHg 36%
    10:00 +36°C° 0 mm 2 m/s 759 mmHg 33%
    11:00 +37°C° 0 mm 2 m/s 758 mmHg 32%
    12:00 +37°C° 0 mm 3 m/s 758 mmHg 31%
    13:00 +38°C° 0 mm 4 m/s 758 mmHg 30%
    14:00 +37°C° 0 mm 3 m/s 758 mmHg 31%
    15:00 +36°C° 0 mm 3 m/s 758 mmHg 33%
    16:00 +36°C° 0 mm 3 m/s 758 mmHg 34%
    17:00 +33°C° 0 mm 3 m/s 758 mmHg 43%
    18:00 +30°C° 0 mm 2 m/s 758 mmHg 51%
    19:00 +27°C° 0 mm 2 m/s 758 mmHg 60%
    20:00 +26°C° 0 mm 2 m/s 758 mmHg 61%
    21:00 +25°C° 0 mm 2 m/s 758 mmHg 63%
    22:00 +24°C° 0 mm 2 m/s 758 mmHg 64%
    23:00 +24°C° 0 mm 2 m/s 758 mmHg 67%
    Arată mai mult